User: anonymous   Login
Location: Newark
(42.8481°N, 0.4872°E)
Time: 14:39:44
(UTC+00:00)
Language:

Transit 2A - Orbit

View from above orbital plane
View from above orbital plane
View from above satellite
View from above satellite

Ground track
Ground track

The orbit data is extracted from the following two-line orbital elements,

1    45U 60007A   20304.64094330 -.00000008 +00000-0 +24941-4 0  9993
2    45 066.6965 024.6244 0260256 218.4987 139.7299 14.33692754085211
Epoch (UTC): 30 October 2020 15:22:57
Eccentricity: 0.0260256
inclination: 66.6965°
perigee height: 593 km
apogee height: 965 km
right ascension of ascending node: 24.6244°
argument of perigee: 218.4987°
revolutions per day: 14.33692754
mean anomaly at epoch: 139.7299°
orbit number at epoch: 8521

The dashed part of the orbit path shows where the satellite is in the earth's shadow,  

DLR